This is the latest recevied weather packets stored in our database for station/object KC1OEK-13. If no packets are shown the sender has not sent any weather packets the latest 10 day(s).
| Time | Temp. | Humidity | Pressure | Rain* | Wind** | Luminosity | Snow |
|---|---|---|---|---|---|---|---|
| 1778110347 | 15.56° C | 99% | 1008.8 hPa | 0 mm | - | 3 W/m² | - |
| 1778110044 | 15.56° C | 99% | 1008.5 hPa | 0 mm | - | 3 W/m² | - |
| 1778109739 | 15.56° C | 99% | 1008.5 hPa | 0 mm | - | 4 W/m² | - |
| 1778109436 | 15.56° C | 99% | 1008.6 hPa | 0 mm | - | 5 W/m² | - |
| 1778109135 | 15° C | 99% | 1008.4 hPa | 0 mm | - | 7 W/m² | - |
| 1778108831 | 15° C | 99% | 1008.6 hPa | 0 mm | - | 10 W/m² | - |
| 1778108528 | 15° C | 99% | 1008.4 hPa | 0 mm | - | 12 W/m² | - |
| 1778108224 | 15° C | 99% | 1008.4 hPa | 0 mm | - | 14 W/m² | - |
| 1778107921 | 15° C | 99% | 1008.1 hPa | 0 mm | - | 22 W/m² | - |
| 1778107618 | 15° C | 99% | 1008.3 hPa | 0 mm | - | 16 W/m² | - |
| 1778107315 | 15° C | 99% | 1008.2 hPa | 0 mm | - | 17 W/m² | - |
| 1778107011 | 15° C | 99% | 1008.1 hPa | 0 mm | - | 13 W/m² | - |
| 1778106707 | 15° C | 99% | 1008.2 hPa | 0 mm | - | 19 W/m² | - |
| 1778106404 | 15° C | 99% | 1008 hPa | 0 mm | - | 19 W/m² | - |
| 1778106100 | 15° C | 99% | 1008.2 hPa | 0 mm | - | 20 W/m² | - |
| 1778105798 | 15° C | 99% | 1008.3 hPa | 0 mm | - | 19 W/m² | - |
| 1778105496 | 15° C | 99% | 1008.2 hPa | 0 mm | - | 19 W/m² | - |
| 1778105192 | 15° C | 99% | 1008.1 hPa | 0 mm | - | 23 W/m² | - |
| 1778104887 | 15° C | 99% | 1008.1 hPa | 0 mm | - | 40 W/m² | - |
| 1778104584 | 15° C | 99% | 1008.2 hPa | 0 mm | - | 40 W/m² | - |
| 1778104279 | 15° C | 99% | 1008.1 hPa | 0 mm | - | 38 W/m² | - |
| 1778103977 | 15° C | 99% | 1008.4 hPa | 0 mm | - | 34 W/m² | - |
| 1778103674 | 15° C | 99% | 1008.1 hPa | 0 mm | - | 27 W/m² | - |
| 1778103372 | 15° C | 99% | 1008.2 hPa | 1.78 mm | - | 31 W/m² | - |
| 1778103069 | 15° C | 99% | 1008.2 hPa | 1.78 mm | - | 28 W/m² | - |
* Rain latest hour (hover to see other rain measurements)
** Current wind speed in m/s (hover to see current wind gust speed)